Regional Weather Roundup
Issued by NWS Wilmington, NC

Home | Current Version | Previous Version | Text Only | Print | Product List | Glossary On
Versions: 1 2 3 4 5 6 7 8 9 10 11 12 13 14 15 16 17 18 19 20 21 22 23 24 25 26 27 28 29 30 31 32 33 34 35 36 37 38 39 40 41 42 43 44 45 46 47 48 49 50
000
ASUS42 KILM 201912
RWRILM
RWRILM
REGIONAL HOURLY WEATHER ROUNDUP
NATIONAL WEATHER SERVICE WILMINGTON NC
200 PM EST MON FEB 20 2017

NOTE: "FAIR" INDICATES FEW OR NO CLOUDS BELOW 12,000 FEET WITH NO
SIGNIFICANT WEATHER AND/OR OBSTRUCTIONS TO VISIBILITY.

...............WFO WILMINGTON COUNTY WARNING AREA...............

......COASTAL NC AND SC COUNTIES......

CITY           SKY/WX    TMP DP  RH WIND       PRES   REMARKS
WILMINGTON     SUNNY     70  45  40 SE8       30.15S
N MYRTLE BEACH SUNNY     65  49  56 SE9       30.16F
MYRTLE BEACH   SUNNY     66  46  48 SE14      30.18S

......INLAND NC AND SC COUNTIES.......

CITY           SKY/WX    TMP DP  RH WIND       PRES   REMARKS
LUMBERTON      SUNNY     73  43  33 E8        30.15F
ELIZABETHTOWN  SUNNY     74  44  33 CALM      30.16F
WHITEVILLE     SUNNY     73  45  36 NE6       30.15F
FLORENCE       SUNNY     73  43  33 NE6       30.15F
DARLINGTON     SUNNY     72  46  39 VRB3      30.16F
KINGSTREE      FAIR      72  43  35 NW3       30.15S
HARTSVILLE     FAIR      70  43  37 NE5       30.15F
BENNETTSVILLE  NOT AVBL
CONWAY         FAIR      73  45  35 NE7       30.15F
GEORGETOWN     FAIR      70  46  43 SE10      30.16F
MARION         FAIR      72  45  37 E6        30.15F

....................REST OF NORTH CAROLINA......................

.........EASTERN NC.........

CITY           SKY/WX    TMP DP  RH WIND       PRES   REMARKS
CAPE HATTERAS  SUNNY     60  46  59 N8G20     30.17F
JACKSONVILLE   SUNNY     72  38  29 NE8       30.16F
MOREHEAD CITY  SUNNY     68  42  38 NE14G22   30.16F
KENANSVILLE    NOT AVBL
NEW BERN       SUNNY     70  41  34 NE8       30.16F
ELIZABETH CITY SUNNY     64  39  39 NE8       30.18F

.........CENTRAL NC.........

CITY           SKY/WX    TMP DP  RH WIND       PRES   REMARKS
RALEIGH DURHAM PTSUNNY   71  32  23 CALM      30.18F
ROCKY MOUNT    SUNNY     70  37  29 VRB7      30.17F
ROANOKE RAPIDS NOT AVBL
FAYETTEVILLE   SUNNY     73  39  29 E7        30.16F
HOFFMAN        SUNNY     71  39  31 NE5       30.16F

.........WESTERN NC.........

CITY           SKY/WX    TMP DP  RH WIND       PRES   REMARKS
CHARLOTTE      MOSUNNY   71  38  29 VRB5      30.17F
GREENSBORO     PTSUNNY   70  37  29 NE5       30.17F
HICKORY        NOT AVBL
BOONE          NOT AVBL
ASHEVILLE      NOT AVBL

.....................REST OF SOUTH CAROLINA.....................

.........EASTERN SC.........

CITY           SKY/WX    TMP DP  RH WIND       PRES   REMARKS
CHARLESTON     MOSUNNY   74  46  36 VRB3      30.14F
BEAUFORT MCAS  MOSUNNY   75  51  43 SE7       30.15F
HILTON HEAD    MOSUNNY   70  52  52 SE5       30.17F

.........CENTRAL SC.........

CITY           SKY/WX    TMP DP  RH WIND       PRES   REMARKS
COLUMBIA       PTSUNNY   74  39  28 CALM      30.15F
ORANGEBURG     SUNNY     72  42  34 E6        30.15F
SUMTER SHAW    SUNNY     73  41  31 E3        30.13F

.........WESTERN SC.........

CITY           SKY/WX    TMP DP  RH WIND       PRES   REMARKS
GREENVILLE     NOT AVBL
ROCK HILL      SUNNY     70  39  32 VRB3      30.16F
ANDERSON       CLOUDY    71  41  33 CALM      30.17F
CLEMSON        NOT AVBL
GREENWOOD      CLOUDY    69  40  34 CALM      30.18F


...................COASTAL AND OFFSHORE REPORTS..................

................LOCAL PIERS AND NC RESERVE................


STATION/POSITION TIME  SKY/WX   TEMP    WIND        PRES    VSBY
                                AIR SEA DIR/SP/G
                 (UTC)          (F)     (DEG/KT/KT) (MB)    (MI)
JOHNY MRCER PIER 1848            59 58  100/  8/  9 1020.3R
NC RESRV MASNBRO 1745            64     100/  5     1021.0
OCEAN CREST PIER NOT AVBL
SPRINGMAID  PIER 1848                               1021.0F


................COASTAL AND OFFSHORE BUOYS................


STATION/POSITION TIME  SKY/WX   TEMP    WIND        PRES    VSBY
                                AIR SEA DIR/SP/G
                 (UTC)          (F)     (DEG/KT/KT) (MB)    (MI)
DIMNDSHOAL 41025 1850            59 63   20/ 17/ 21 1021.0F
WVE H/P(F/S)=  3/ 5 SWL H/P/D(F/S/D)=  2/ 80/ 7

CAPE LOOKOUT     1900            58      40/ 15/ 16 1021.2F
ONSLOW BAY 41036 NOT AVBL
ONSLOW BAY 41064 1808            61      60/ 16/ 19 1021.0F
ONSLOW BAY 41159 1843               63                N/A
WVE H/P(F/S)=  3/ 5

MASNBO INL 41110 1829               57                N/A
WVE H/P(F/S)=  1/ 3

WILM HARBR 41108 1847               57                N/A
WVE H/P(F/S)=  2/ 3

27SE WRITB 41037 1808            62 62   70/ 16/ 21 1020.3F
FRYING PAN 41013 1850            62 65   10/ 12/ 12 1021.0S
WVE H/P(F/S)=  2/ 4

SUNST NRSH 41024 1808            60 57  160/  6/  6 1021.4F
CAPRS NRSH 41029 1808            60 59   70/ 10/ 12 1021.2F
EDISTO     41004 1850            65 69   20/  8/ 10 1020.5F
WVE H/P(F/S)=  2/ 4 SWL H/P/D(F/S/D)=  2/ 40/ 4



..........OFFSHORE BUOYS BEYOND 100 NM OFFSHORE...........
.....IN A TRIANGLE---HAT TO BERMUDA TO BAHAMAS TO HAT.....


STATION/POSITION TIME  SKY/WX   TEMP    WIND        PRES    VSBY
                                AIR SEA DIR/SP/G
                 (UTC)          (F)     (DEG/KT/KT) (MB)    (MI)
150E HAT   41001 NOT AVBL
W BERMUDA  41048 1750            68 69  360/ 14/ 17 1014.4
WVE H/P(F/S)=  4/ 7 SWL H/P/D(F/S/D)=  2/230/ 7

ATLANTIC S 41049 1850            70 72  120/ 16/ 17 1012.4F
WVE H/P(F/S)=  4/ 8 SWL H/P/D(F/S/D)=  3/ 20/ 8

E BAHAMAS  41046 1850            76 78  340/ 17/ 21 1014.5F
WVE H/P(F/S)=  5/ 6 SWL H/P/D(F/S/D)=  2/10

NE BAHAMAS 41047 1850            71 74  340/ 21/ 25 1013.8F
WVE H/P(F/S)=  6/ 6

120E CANVRL41010 NOT AVBL

END



USA.gov is the U.S. government's official web portal to all federal, state and local government web resources and services.